Content
SEND FEEDBACK

Daily
Averages
Monthly
Summary
United States of America

MADELINE ISLAND, WISCONSIN


Home > North America > United States > Wisconsin
Elevation: 646 feet     Latitude: 46 47N     Longitude: 090 45W

WEATHER
 
SELECT A DAY
Number of Records: 184,133;   Date Range: 10/16/98 - 12/16/14
 
SHARE

PRINT THIS DATA

[ ← Previous Day ]
WEATHER ALMANAC - JANUARY 31, 2013
[ Next Day → ]
[ °C ]   °F
Weather ElementAverageHighLow
Temperature7.8 °F10.4 °F (12:30 am)1.9 °F (10:53 pm)
Dewpoint0.5 °F5 °F (12:30 am)-6 °F (11:53 pm)
Humidity72.6 %80 % (3:53 am)64 % (11:53 am)
Barometer29.87 in30.17 in (11:53 pm)29.63 in (12:30 am)
Wind Speed10.2 mph16.1 mph (2:26 pm)
Wind Gust21.9 mph (2:26 pm)
Weather ElementAverage
Visibility6.9 mi
Wind DirectionWNW (297.4 °)

Weather ElementTotal
Precipitation---
Heating Degree Days58.9 (Base 65)
Averaged from 34 records on January 31, 2013
WEATHER CONDITIONS BREAKOUT
WIND DIRECTION BREAKOUT
WEATHER BY HOUR - JANUARY 31, 2013
[ °C ]   °F
Local TimeTemperatureDewpointHumidityBarometerVisibilityWind DirectionWind SpeedGust SpeedPrecipitationEventsConditions
12:30 AM10.4 °F5.0 °F79 %29.63 in3.0 miNW (320°)8.1 mph0.00 inSnowLight Snow
12:37 AM10.4 °F5.0 °F79 %29.63 in2.5 miNW (320°)6.9 mph0.00 inSnowLight Snow
12:44 AM10.4 °F5.0 °F79 %29.63 in5.0 miNW (320°)9.2 mph0.00 inSnowLight Snow
12:53 AM10.0 °F3.9 °F76 %29.68 in10.0 miNW (320°)5.8 mph0.00 inOvercast
1:53 AM10.0 °F3.0 °F73 %29.70 in9.0 miWNW (300°)6.9 mph0.00 inOvercast
2:53 AM9.0 °F3.0 °F77 %29.72 in5.0 miNW (310°)8.1 mphHaze
3:53 AM8.1 °F3.0 °F80 %29.73 in4.0 miWNW (290°)8.1 mphHaze
4:53 AM8.1 °F3.0 °F80 %29.74 in4.0 miWest (280°)8.1 mphHaze
5:19 AM8.6 °F3.2 °F79 %29.68 in4.0 miWNW (290°)10.4 mphHaze
5:53 AM8.1 °F1.9 °F76 %29.75 in3.0 miWNW (290°)11.5 mphHaze
6:37 AM8.6 °F1.4 °F73 %29.71 in5.0 miWNW (300°)9.2 mphHaze
6:53 AM8.1 °F1.9 °F76 %29.77 in7.0 miWNW (290°)6.9 mphOvercast
7:43 AM8.6 °F1.4 °F73 %29.74 in4.0 miWNW (300°)8.1 mphHaze
7:53 AM8.1 °F1.9 °F76 %29.80 in3.0 miWNW (300°)10.4 mphHaze
8:53 AM8.1 °F1.9 °F76 %29.83 in9.0 miWNW (300°)10.4 mphOvercast
9:34 AM8.6 °F-0.4 °F67 %29.79 in10.0 miNW (320°)15.0 mph19.6 mphOvercast
9:53 AM8.1 °F1.0 °F73 %29.87 in4.0 miNW (310°)11.5 mph19.6 mphHaze
10:53 AM8.1 °F0.0 °F70 %29.90 in8.0 miWNW (300°)11.5 mph18.4 mphOvercast
11:25 AM8.6 °F-0.4 °F67 %29.85 in7.0 miNW (310°)12.7 mph17.3 mphOvercast
11:53 AM9.0 °F-0.9 °F64 %29.92 in7.0 miWNW (300°)13.8 mph18.4 mphOvercast
12:53 PM8.1 °F-2.0 °F64 %29.94 in10.0 miNW (310°)15.0 mph20.7 mphOvercast
1:53 PM9.0 °F-0.9 °F64 %29.95 in8.0 miWNW (290°)13.8 mph19.6 mphOvercast
2:26 PM8.6 °F-0.4 °F67 %29.90 in9.0 miNW (310°)16.1 mph21.9 mphOvercast
2:53 PM9.0 °F-0.9 °F64 %29.97 in10.0 miWNW (300°)12.7 mphOvercast
3:53 PM8.1 °F0.0 °F70 %30.00 in5.0 miWNW (290°)8.1 mphHaze
4:53 PM7.0 °F0.0 °F73 %30.02 in6.0 miWNW (290°)10.4 mphHaze
5:43 PM6.8 °F-0.4 °F72 %29.98 in10.0 miWest (270°)9.2 mphOvercast
5:53 PM6.1 °F-0.9 °F73 %30.05 in10.0 miWest (280°)9.2 mphOvercast
6:53 PM6.1 °F-2.9 °F67 %30.07 in10.0 miWNW (290°)10.4 mph17.3 mphOvercast
7:44 PM5.0 °F-2.2 °F72 %30.03 in10.0 miWNW (290°)10.4 mphOvercast
7:53 PM5.0 °F-2.9 °F70 %30.10 in10.0 miWNW (290°)8.1 mphOvercast
9:53 PM3.9 °F-2.9 °F73 %30.14 in8.0 miWest (270°)6.9 mphOvercast
10:53 PM1.9 °F-4.0 °F76 %30.16 in6.0 miWest (270°)9.2 mphHaze
11:53 PM1.9 °F-6.0 °F69 %30.17 in10.0 miWNW (290°)15.0 mphOvercast
Hourly data recorded from KASX, located miles away from Madeline Island, Wisconsin







STORIES FROM OUR PARTNERS